Live-Position
3D-Globus wird geladen...
Über Starlink 5525
Group: 3 satellites
Beschreibung wird geladen...
Nächste Überflüge
Passes for default location (London). Set your location on the main map for personalized predictions.
Höhenverlauf
Loading altitude history...
No altitude history available
Zweizeiliger Elementsatz
1 57218U 23094A 26120.65009264 -.00025246 00000-0 -93938-3 0 9990
2 57218 43.0035 97.1575 0003175 99.1059 261.0152 15.26570554155067
Epoch: 30. Apr. 2026 •
Age: 39 hours
Aktueller Status
Höhe 500.0 km
Geschwindigkeit 7.61 km/s
Subsatellitenpunkt -38.62°S,
70.79°E
Startdatum 7. Juli 2023
Alter 2.8 years
Typ internet
Startgruppe
Falcon 9 •
Group 5-13 •
46 satellites
Starlink 5520
57219
Starlink 5880 57220
Starlink 5875 57221
Starlink 5870 57222
Starlink 5519 57223
Starlink 5983 57224
Starlink 6294 57225
Starlink 6350 57226
Starlink 5996 57227
Starlink 6230 57228
Starlink 6233 57229
Starlink 6250 57230
Starlink 5840 57231
Starlink 5872 57232
Starlink 5866 57233
Starlink 6368 57234
Starlink 6360 57235
Starlink 6315 57236
Starlink 6365 57237
Starlink 6334 57238
...and 25 more
Technische Details
Klassifizierung Payload
Masse 305.00 kg
Trockenmasse 290.00 kg
Gesamtmasse 305.00 kg
Länge 0.20 m
Durchmesser 2.80 m
Spannweite 9.00 m
Form Box + pan
Hersteller SPXS
Bus-Typ Starlink
Phasenstatus In Orbit
Besitzer/Staat SPXS/US
Most Searched
Loading...